LBSFLBBG

Guest
Details From LBSF - Sofia
To LBBG - Burgas
Flight Number -
Tags generated
Created
Modified
Stats Distance 190 nm / 351 km
Max Altitude 19,500 ft / 5,944 m
Waypoints 3
Social Downloads 14
Likes 0
Share VATSIM

Download

Looking for another format? Having issues loading an existing format? Contact us
Advertisement - Login to hide

Notes

Basic altitude profile: - Ascent Rate: 2500ft/min - Ascent Speed: 250kts - Cruise Altitude: 35000ft - Cruise Speed: 420kts - Descent Rate: 1500ft/min - Descent Speed: 250kts Options: - Use NATs: yes - Use PACOTS: yes - Use low airways: yes - Use high airways: yes

Route

LBSF GERGI LBBG

ID Type Via Altitude Latitude Longitude Leg Dist Tot Dist Heading (true) Name
O LBSF APT - 0 ft / 0 m 42.69713˚ 23.41672˚ - 0 nm - Sofia
GERGI FIX - 19,500 ft / 5,944 m 42.18333˚ 25.52194˚ 98 nm 98 nm 108° / 109° -
O LBBG APT - 0 ft / 0 m 42.57013˚ 27.51524˚ 91 nm 189 nm 75° / 76° Burgas

Altitude Profile

Advertisement - Login to hide

Weather


0- 5 10 15 20 25 30 35+ Temperature / ° C

Clouds and Precipitation
Forecast for 2017-12-12 00:00 UTC. Updated an hour ago

Ground ~20,000 ft ~40,000 ft Winds

LBSF

Details ICAO LBSF (SOF)
Name Sofia
Region Bulgaria
Timezone Europe/Sofia (UTC+2.0)
Stats Elevation 1,741 ft / 531 m (AMSL)
Location 42.697130° 23.416722°
Runways 1
Magnetic Variation 4.933° E

METAR

LBSF 120030Z 06004KT 360V130 CAVOK M04/M05 Q1018 NOSIG

Decode

TAF

TAF LBSF 112300Z 1200/1224 VRB04KT 3000 BR SCT010 PROB40 TEMPO 1201/1207 0600 FZFG BKN003 BECMG 1207/1209 7000 NSC BECMG 1218/1220 4000 BR SCT010

Decode

Departure Runways

ID Width Length Bearing (true) Bearing (mag) Surface Threshold Offset Overrun Length
09 148 ft / 45 m 11,801 ft / 3,597 m 93.99° 89.06° Asphalt 984 ft / 300 m 525 ft / 160 m
27 148 ft / 45 m 11,801 ft / 3,597 m 274.02° 269.09° Asphalt 0 ft / 0 m 525 ft / 160 m

LBBG

Details ICAO LBBG (BOJ)
Name Burgas
Region Bulgaria
Timezone Europe/Sofia (UTC+2.0)
Stats Elevation 135 ft / 41 m (AMSL)
Location 42.570130° 27.515240°
Runways 1
Magnetic Variation 5.502° E

METAR

LBBG 120030Z 26013KT CAVOK 06/03 Q1018 NOSIG

Decode

TAF

TAF TAF LBBG 112300Z 1200/1224 26010KT CAVOK PROB30 TEMPO 1203/1206 4000 BR NSC

Decode

Destination Runways

ID Width Length Bearing (true) Bearing (mag) Surface Threshold Offset Overrun Length
04 148 ft / 45 m 10,502 ft / 3,201 m 44.28° 38.78° Concrete 0 ft / 0 m 190 ft / 58 m
22 148 ft / 45 m 10,502 ft / 3,201 m 224.29° 218.79° Concrete 0 ft / 0 m 190 ft / 58 m

Approach Navaids

Runway Type Ident Frequency Range Bearing (true) Bearing (mag) Slope Elevation
22 Localiser IBG 110.30 MHz 18 nm / 33 km 224.26° 218.76° - 135 ft / 41 m (AMSL)
22 Glidescope IBG 110.30 MHz 10 nm / 19 km 224.28° 218.78° 3.00° 135 ft / 41 m (AMSL)

Popular Alternatives